Location: Milano
(45.4670°N, 9.2000°E)
Time: 20:45:59
(UTC+02:00)

ISS - Pass Details

Date: 21 May 2021
Orbit: 417 x 422 km, 51.6° (Epoch: 14 June)

Event Time Altitude Azimuth Distance (km) Brightness Sun altitude
Rises 00:31:26 0° 297° (WNW) 2,369 0.6 -23.4°
Reaches altitude 10° 00:33:38 10° 306° (NW) 1,505 -0.3 -23.5°
Maximum altitude 00:36:48 37° 16° (NNE) 668 -2.3 -23.6°
Enters shadow 00:36:59 37° 25° (NNE) 672 -2.4 -23.6°
